[[{"header":{"parameterUnit":"m.s-1","parameterCategory":1,"la1":30.2991,"la2":30.254,"lo1":-89.0895,"lo2":-89.0444,"dy":0.0017,"dx":0.0017,"nx":28,"ny":28,"refTime":"2023-11-16T03:00:00:Z","depth":0,"parameterNumber":2,"parameterNumberName":"U-component_of_WINDS"},"data":[0,0,0,0,0,0,0,0,0,0,0,0,0,0,0,0,0,0,0,0,0,0,0,0,0,0,0,0,0,0,0,0,0,0,0,0,0,0,0,0,0,0,0,0,0,0,0,0,0,0,0,0,0,0,0,0,0,0,-2.7983,-2.7984,0,-2.8016,-2.8016,-2.8017,-2.793,-2.7927,-2.7925,-2.7922,-2.7955,-2.7959,-2.7962,0,0,0,0,0,0,0,0,0,0,0,0,0,-2.7846,-2.7849,-2.7983,-2.7984,-2.7984,-2.8016,-2.8016,-2.8017,-2.793,-2.7927,-2.7924,-2.7921,-2.7954,-2.7958,-2.7962,0,0,0,0,0,0,0,0,0,0,0,0,0,-2.7895,-2.785,-2.7983,-2.7945,-2.7942,-2.8016,-2.8016,-2.8017,-2.7931,-2.7927,-2.7923,-2.7919,-2.7953,-2.7958,-2.7963,-2.8075,0,0,-2.7978,-2.7981,0,0,0,0,0,0,0,0,-2.7892,-2.79,-2.795,-2.7948,-2.7944,-2.7965,-2.798,-2.8036,-2.7932,-2.7935,-2.7922,-2.7917,-2.7962,-2.7966,-2.7981,-2.8077,-2.8078,-2.7979,-2.7982,-2.7984,-2.7986,0,0,0,0,0,0,0,-2.7889,-2.7898,-2.7996,-2.7951,-2.7947,-2.7926,-2.7928,-2.799,-2.7971,-2.7935,-2.7928,-2.7933,-2.7959,-2.7976,-2.7981,-2.8079,-2.7979,-2.7983,-2.7986,-2.7988,-2.827,-2.8274,0,0,0,0,0,0,-2.7891,-2.7896,-2.7995,-2.7997,-2.7908,-2.7932,-2.7934,-2.7962,-2.797,-2.7967,-2.7937,-2.7929,-2.7969,-2.7975,-2.7982,-2.8115,-2.7984,-2.7989,-2.7992,-2.8265,-2.8271,-2.8275,0,0,0,0,0,0,-2.7888,-2.79,-2.7994,-2.7945,-2.7955,-2.7938,-2.797,-2.7965,-2.7982,-2.7971,-2.7968,-2.7958,-2.7966,-2.7975,-2.8053,-2.8115,-2.7991,-2.7996,-2.826,-2.8267,-2.8273,-2.8382,0,0,0,0,0,0,-2.7885,-2.79,-2.7943,-2.7947,-2.7958,-2.8065,-2.7974,-2.7969,-2.7991,-2.7981,-2.799,-2.7988,-2.7964,-2.8046,-2.8058,-2.812,-2.8,-2.8254,-2.8263,-2.8271,-2.8373,-2.8391,-2.8407,0,0,0,0,0,-2.788,-2.7972,-2.7945,-2.7958,-2.8011,-2.8068,-2.8075,-2.8046,-2.7996,-2.8039,-2.8032,-2.7987,-2.8106,-2.8055,-2.8068,-2.8132,-2.825,-2.8261,-2.827,-2.8365,-2.8388,-2.8407,0,0,0,0,0,0,-2.7975,-2.7972,-2.7942,-2.8038,-2.8054,-2.8054,-2.8107,-2.8071,-2.8102,-2.8091,-2.8054,-2.8056,-2.8142,-2.8144,-2.8087,-2.8241,-2.817,-2.8183,-2.8237,-2.8259,-2.8276,-2.8274,-2.8004,0,0,0,0,0,-2.8008,-2.8055,-2.8048,-2.8133,-2.8143,-2.8124,-2.8148,-2.8124,-2.8139,-2.8146,-2.8145,-2.8162,-2.8202,-2.823,-2.8267,-2.8372,-2.8373,-2.8422,-2.844,-2.8454,-2.8466,-2.8523,-2.8545,-2.8308,-2.8308,-2.8308,0,0,-2.8075,-2.8078,-2.811,-2.8153,-2.8163,-2.8213,-2.813,-2.8186,-2.8223,-2.8154,-2.8229,-2.8229,-2.8245,-2.8337,-2.8378,-2.8341,-2.8532,-2.8467,-2.8478,-2.8483,-2.8535,-2.8558,-2.8578,-2.8315,-2.8313,-2.8312,0,0,-2.8222,-2.8229,-2.8302,-2.8313,-2.8329,-2.8316,-2.8333,-2.8339,-2.8336,-2.841,-2.836,-2.8403,-2.8474,-2.8488,-2.8504,-2.8658,-2.8618,-2.867,-2.8762,-2.8817,-2.8836,-2.8852,-2.8908,-2.8929,-2.8682,-2.8683,-2.8683,0,-2.8304,-2.8377,-2.8343,-2.8403,-2.8424,-2.8364,-2.8437,-2.845,-2.8477,-2.8493,-2.8452,-2.854,-2.8547,-2.8642,-2.868,-2.8694,-2.8714,-2.867,-2.8836,-2.8852,-2.8867,-2.892,-2.8941,-2.8689,-2.8688,-2.8688,-2.8687,0,-2.8477,-2.8528,-2.8584,-2.8613,-2.864,-2.8706,-2.8683,-2.8714,-2.8687,-2.8678,-2.8755,-2.876,-2.8798,-2.8818,-2.8793,-2.8911,-2.8888,-2.8842,-2.877,-2.8897,-2.8946,-2.8966,-2.8698,-2.8696,-2.8694,-2.8692,0,0,-2.8686,-2.8696,-2.8717,-2.873,-2.8743,-2.8782,-2.8846,-2.8883,-2.8911,-2.8931,-2.8984,-2.9046,-2.9004,-2.9022,-2.8998,-2.9047,-2.917,-2.8995,-2.8994,-2.9028,-2.9301,-2.9336,-2.936,-2.9142,-2.9146,-2.9149,-2.93,0,-2.8833,-2.8943,-2.8915,-2.9024,-2.9071,-2.9015,-2.907,-2.9085,-2.9078,-2.9117,-2.9109,-2.9154,-2.9094,-2.9106,-2.9151,-2.9145,-2.9224,-2.9133,-2.9192,-2.9195,-2.9192,-2.9386,-2.9423,-2.9565,-2.9319,-2.9322,-2.9324,0,-2.902,-2.9048,-2.9163,-2.9169,-2.9188,-2.9238,-2.927,-2.9308,-2.9323,-2.9315,-2.9336,-2.9302,-2.9365,-2.9291,-2.9378,-2.9317,-2.9339,-2.934,-2.9344,-2.935,-2.9268,-2.9398,-2.961,-2.9632,-2.9354,-2.9351,-2.9349,0,-2.9163,-2.923,-2.9307,-2.9319,-2.9328,-2.9365,-2.9371,-2.9382,-2.9406,-2.9434,-2.9449,-2.9484,-2.9503,-2.9531,-2.9507,-2.9455,-2.9598,-2.9522,-2.9594,-2.9595,-2.9628,-2.9626,-2.9847,-2.964,-2.9639,-2.9639,-2.9639,0,-2.9331,-2.9404,-2.9372,-2.942,-2.9499,-2.9466,-2.9545,-2.9544,-2.9554,-2.9601,-2.9553,-2.9598,-2.9564,-2.9605,-2.9587,-2.9662,-2.9671,-2.9666,-2.9661,-2.9672,-2.9673,-2.9687,-2.9677,-2.9645,-2.9643,-2.9642,-2.9641,0,-2.9506,-2.9487,-2.9568,-2.9569,-2.9572,-2.963,-2.9632,-2.9676,-2.9665,-2.9725,-2.9737,-2.9721,-2.9768,-2.9746,-2.9795,-2.9783,-2.988,-2.9861,-2.9876,-2.9871,-2.9945,-2.9939,-3.0184,-3.0215,-2.9986,-2.9988,-2.999,0,-2.9615,-2.9669,-2.9677,-2.9705,-2.9714,-2.9759,-2.9784,-2.9753,-2.9781,-2.9802,-2.9844,-2.9887,-2.9919,-2.9997,-2.9989,-3.0027,-3.0009,-3.0092,-3.0014,-3.0023,-3.0012,-3.0009,-3.0015,-3.0108,-3.0111,-3.0113,-3.0115,0,-2.9811,-2.98,-2.9837,-2.9872,-2.9903,-2.9929,-2.995,-2.9976,-2.9945,-2.9979,-3.0026,-3.0052,-3.0102,-3.0145,-3.0178,-3.0183,-3.0145,-3.0139,-3.0158,-3.017,-3.0177,-3.0176,-2.992,-3.0134,-3.0132,-3.0131,-3.013,-3.0129,-2.9957,-3.0003,-3.0017,-3.006,-3.0073,-3.0095,-3.0137,-3.0131,-3.017,-3.0209,-3.0188,-3.0244,-3.0258,-3.0298,-3.0308,-3.0352,-3.0319,-3.0346,-3.0353,-3.036,-3.0371,-3.0169,-3.0357,-3.0356,-3.0356,-3.0355,-3.0355,0,-3.0153,-3.0158,-3.0198,-3.0231,-3.0265,-3.0225,-3.0247,-3.0279,-3.0328,-3.0345,-3.0378,-3.0433,-3.0474,-3.047,-3.0509,-3.0544,-3.0528,-3.0556,-3.0553,-3.0555,-3.0397,-3.0378,-3.0568,-3.0568,-3.0568,-3.0568,-3.0568,-3.0568,-3.0258,-3.0335,-3.0325,-3.0407,-3.0412,-3.0466,-3.0482,-3.0502,-3.0515,-3.0579,-3.0613,-3.061,-3.0618,-3.0657,-3.0694,-3.0691,-3.0708,-3.0743,-3.0735,-3.0587,-3.0566,-3.0546,-3.0528,-3.0747,-3.0747,-3.0889,-3.0891,-3.0892]},{"header":{"parameterUnit":"m.s-1","parameterCategory":1,"la1":30.2991,"la2":30.254,"lo1":-89.0895,"lo2":-89.0444,"dy":0.0017,"dx":0.0017,"nx":28,"ny":28,"refTime":"2023-11-16T03:00:00:Z","depth":0,"parameterNumber":3,"parameterNumberName":"V-component_of_WINDS"},"data":[0,0,0,0,0,0,0,0,0,0,0,0,0,0,0,0,0,0,0,0,0,0,0,0,0,0,0,0,0,0,0,0,0,0,0,0,0,0,0,0,0,0,0,0,0,0,0,0,0,0,0,0,0,0,0,0,0,0,-3.0488,-3.0488,0,-3.0524,-3.0524,-3.0524,-3.05,-3.0499,-3.0498,-3.0497,-3.0532,-3.0534,-3.0536,0,0,0,0,0,0,0,0,0,0,0,0,0,-3.0395,-3.0397,-3.0488,-3.0488,-3.0489,-3.0524,-3.0524,-3.0524,-3.05,-3.0499,-3.0498,-3.0496,-3.0531,-3.0533,-3.0536,0,0,0,0,0,0,0,0,0,0,0,0,0,-3.0434,-3.0398,-3.0488,-3.0481,-3.0481,-3.0523,-3.0524,-3.0525,-3.0501,-3.0499,-3.0497,-3.0496,-3.053,-3.0533,-3.0536,-3.0587,0,0,-3.0545,-3.0546,0,0,0,0,0,0,0,0,-3.0432,-3.0437,-3.0481,-3.0481,-3.0481,-3.0506,-3.0504,-3.0545,-3.0501,-3.0493,-3.0497,-3.0495,-3.0524,-3.0528,-3.0538,-3.0589,-3.059,-3.0545,-3.0547,-3.0548,-3.0549,0,0,0,0,0,0,0,-3.0429,-3.0435,-3.0502,-3.0482,-3.0482,-3.0475,-3.0479,-3.0512,-3.0517,-3.0493,-3.0492,-3.0496,-3.0524,-3.0535,-3.0538,-3.0591,-3.0545,-3.0548,-3.055,-3.0551,-3.0683,-3.0685,0,0,0,0,0,0,-3.0427,-3.0433,-3.0501,-3.0503,-3.0452,-3.0478,-3.0482,-3.0499,-3.0517,-3.0518,-3.0498,-3.0495,-3.0531,-3.0535,-3.054,-3.06,-3.0548,-3.0551,-3.0553,-3.0682,-3.0684,-3.0686,0,0,0,0,0,0,-3.0425,-3.0433,-3.0499,-3.0468,-3.0476,-3.0481,-3.0501,-3.0501,-3.0512,-3.052,-3.0521,-3.0509,-3.053,-3.0535,-3.0575,-3.06,-3.0552,-3.0555,-3.068,-3.0682,-3.0685,-3.072,0,0,0,0,0,0,-3.0423,-3.0433,-3.0453,-3.0468,-3.0477,-3.0535,-3.0503,-3.0503,-3.0518,-3.0514,-3.053,-3.0531,-3.0529,-3.0571,-3.0578,-3.0604,-3.0557,-3.0677,-3.0681,-3.0684,-3.0717,-3.0724,-3.073,0,0,0,0,0,-3.042,-3.0462,-3.0454,-3.0463,-3.0503,-3.0537,-3.0542,-3.0539,-3.052,-3.054,-3.0544,-3.0531,-3.0597,-3.0575,-3.0583,-3.061,-3.0676,-3.068,-3.0684,-3.0714,-3.0723,-3.073,0,0,0,0,0,0,-3.0449,-3.0464,-3.0456,-3.0504,-3.052,-3.0533,-3.0558,-3.0548,-3.0568,-3.0565,-3.0559,-3.0563,-3.0604,-3.0611,-3.0587,-3.0659,-3.0633,-3.0639,-3.0653,-3.0662,-3.0668,-3.0665,-3.056,0,0,0,0,0,-3.0462,-3.0489,-3.05,-3.0541,-3.0549,-3.0552,-3.0567,-3.0563,-3.0578,-3.0584,-3.0592,-3.0607,-3.0631,-3.0646,-3.0669,-3.0718,-3.072,-3.074,-3.0746,-3.0752,-3.0756,-3.0781,-3.079,-3.0699,-3.0699,-3.0699,0,0,-3.0487,-3.0498,-3.0516,-3.0548,-3.0559,-3.0586,-3.0558,-3.0588,-3.0608,-3.0589,-3.0627,-3.0633,-3.0649,-3.0693,-3.0713,-3.07,-3.0782,-3.0757,-3.0761,-3.0763,-3.0786,-3.0795,-3.0803,-3.0701,-3.0701,-3.07,0,0,-3.0548,-3.056,-3.0595,-3.0607,-3.0624,-3.0625,-3.0634,-3.0648,-3.0652,-3.069,-3.0676,-3.0698,-3.074,-3.0751,-3.0763,-3.0825,-3.0813,-3.0833,-3.0867,-3.0891,-3.0898,-3.0904,-3.0926,-3.0934,-3.0838,-3.0838,-3.0838,0,-3.0577,-3.0619,-3.0614,-3.0645,-3.0659,-3.0643,-3.0678,-3.0689,-3.0713,-3.0722,-3.0708,-3.0758,-3.0768,-3.0814,-3.0829,-3.0839,-3.0848,-3.0831,-3.0897,-3.0904,-3.0909,-3.093,-3.0938,-3.084,-3.084,-3.084,-3.0839,0,-3.0653,-3.0682,-3.0708,-3.0731,-3.0748,-3.0781,-3.0781,-3.0798,-3.0792,-3.0794,-3.0832,-3.0843,-3.0867,-3.0877,-3.0872,-3.0922,-3.0913,-3.0898,-3.0872,-3.092,-3.0939,-3.0947,-3.0843,-3.0842,-3.0842,-3.0841,0,0,-3.0735,-3.0754,-3.0764,-3.0774,-3.0791,-3.0812,-3.0844,-3.0867,-3.0881,-3.0898,-3.0923,-3.0958,-3.0943,-3.0956,-3.0952,-3.0973,-3.1021,-3.0955,-3.0955,-3.0966,-3.1075,-3.1086,-3.1096,-3.1013,-3.1014,-3.1015,-3.1073,0,-3.0795,-3.0851,-3.0847,-3.0899,-3.0924,-3.0909,-3.0936,-3.0949,-3.0951,-3.0972,-3.0975,-3.1,-3.0979,-3.0987,-3.1007,-3.1011,-3.1042,-3.1006,-3.1035,-3.1036,-3.1032,-3.1106,-3.1118,-3.1172,-3.1081,-3.1082,-3.1083,0,-3.0874,-3.0893,-3.0948,-3.0959,-3.097,-3.0995,-3.1015,-3.1036,-3.1049,-3.1049,-3.1063,-3.1055,-3.1085,-3.1058,-3.1098,-3.1074,-3.1085,-3.1089,-3.1091,-3.1093,-3.1063,-3.1109,-3.119,-3.1198,-3.1095,-3.1094,-3.1093,0,-3.0927,-3.0966,-3.1003,-3.1012,-3.1027,-3.1045,-3.1052,-3.1064,-3.1077,-3.1095,-3.1103,-3.1124,-3.1135,-3.1151,-3.1147,-3.1128,-3.1189,-3.1162,-3.1189,-3.1189,-3.1203,-3.1202,-3.1285,-3.1211,-3.1211,-3.1211,-3.121,0,-3.0995,-3.1029,-3.1027,-3.105,-3.1086,-3.1081,-3.1117,-3.1122,-3.1133,-3.1155,-3.1143,-3.1164,-3.1159,-3.1179,-3.1177,-3.1211,-3.1216,-3.1216,-3.1215,-3.1217,-3.1217,-3.1224,-3.122,-3.1213,-3.1212,-3.1212,-3.1211,0,-3.1061,-3.1061,-3.11,-3.1111,-3.1114,-3.1141,-3.1149,-3.117,-3.1171,-3.12,-3.1206,-3.1208,-3.1232,-3.123,-3.1257,-3.1255,-3.1296,-3.1291,-3.1292,-3.1291,-3.1318,-3.1315,-3.1409,-3.1421,-3.1339,-3.134,-3.134,0,-3.1104,-3.113,-3.1143,-3.1157,-3.1165,-3.1189,-3.1202,-3.1197,-3.1212,-3.1228,-3.1247,-3.127,-3.1287,-3.1326,-3.1329,-3.1349,-3.1343,-3.1375,-3.1346,-3.1347,-3.1343,-3.1341,-3.1343,-3.138,-3.1381,-3.1382,-3.1383,0,-3.1181,-3.1179,-3.12,-3.122,-3.1237,-3.1253,-3.1267,-3.1279,-3.1275,-3.1292,-3.1316,-3.133,-3.1357,-3.1379,-3.1398,-3.1404,-3.1392,-3.1391,-3.1399,-3.1401,-3.14,-3.14,-3.1307,-3.1389,-3.1389,-3.1388,-3.1388,-3.1388,-3.1236,-3.1258,-3.127,-3.1293,-3.1303,-3.1316,-3.1336,-3.1339,-3.1359,-3.1381,-3.1376,-3.1403,-3.1414,-3.1438,-3.1446,-3.1466,-3.1454,-3.1465,-3.1468,-3.1471,-3.1473,-3.1397,-3.1469,-3.1469,-3.1469,-3.1469,-3.1469,0,-3.1312,-3.1318,-3.1339,-3.136,-3.1377,-3.1365,-3.1379,-3.1395,-3.1419,-3.143,-3.1448,-3.1474,-3.1495,-3.15,-3.1519,-3.1534,-3.153,-3.154,-3.1538,-3.154,-3.1483,-3.1474,-3.1543,-3.1543,-3.1543,-3.1543,-3.1543,-3.1543,-3.1353,-3.1388,-3.1388,-3.1427,-3.1433,-3.1459,-3.1468,-3.148,-3.1489,-3.152,-3.1537,-3.1539,-3.1548,-3.1568,-3.1586,-3.1586,-3.1594,-3.1606,-3.1605,-3.1551,-3.1544,-3.1537,-3.1529,-3.1608,-3.1608,-3.166,-3.166,-3.166]}]]